{"data":{"norad_id":66203,"epoch":"2026-09-20T16:43:15.768192Z","epoch_age_seconds":83412,"freshness":"FRESH","line1":"1 66203U 25243AC  26263.69671028  .00018784  00000+0  56547-3 0  9998","line2":"2 66203  53.1609  58.5128 0001667  86.9401 273.1793 15.34411124 50520","mean_motion":15.34411124,"eccentricity":0.0001667,"inclination_deg":53.1609,"raan_deg":58.5128,"arg_perigee_deg":86.9401,"mean_anomaly_deg":273.1793,"bstar":0.00056547,"rev_number":5052,"period_min":93.847077714486,"perigee_km":461.52981497808,"apogee_km":463.81054009107,"semimajor_km":6840.8071775346,"source":"CELESTRAK","updated_at":"2026-09-21T09:00:35.839044Z"}}